Location: Nag� el Ma?a??a
(24.0667°N, 32.8833°E)
Time: 16:01:23
(UTC+00:00)

Cosmos 192 - Pass Details

Date: 25 September 2021
Orbit: 700 x 714 km, 74.0° (Epoch: 16 October)

Event Time Altitude Azimuth Distance (km) Brightness Sun altitude
Exits shadow 01:58:58 59° 304° (NW) 814 4.3 -23.4°
Drops below altitude 10° 02:03:32 10° 6° (N) 2,182 7.0 -22.3°
Sets 02:05:54 0° 10° (N) 3,105 7.9 -21.8°
